SCP
0 0 0 0 0 0 0 0 0 0 0 0 0 0 0 0 0 0 0 0 0 0 0 0 0 0 0 0 0 0 0 0 0 0 0 0 0 0 0 0 0 0 0 0 0 0 0
0 0 0 0 0 0 0 0 -0 0 0 0 0 0 0 0 0 0 0 0 0 0 0 0 0 0 0 0 0 0 0 0 0 0 0 0 0 0 0 0 0 0 0 0 0 0 0
0 0 0 0 0 0 0 0 0 0 0 0 0 0 0 0 0 0 0 0 0 0 0 0 0 0 0 0 0 0 0 0 0 0 0 0 0 0 0 0 0 0 0 0 0 0 0
0 0 0 0 0 0 0 0 0 0 0 -0 0 0 0 0 0 0 0 0 0 0 0 0 0 0 0 0 0 0 0 0 0 0 0 0 0 0 0 0 0 0 0 0 0 0 0
0 0 0 0 0 0 0 0 0 -0 -0 -0 0 0 0 0 0 0 0 0 -0 0 0 0 0 0 0 0 0 0 0 0 0 0 0 0 0 0 0 0 0 0 0 0 0 0 0
0 0 0 0 0 0 0 0 0 -0 -0 0 0 0 0 0 0 0 0 0 0 0 0 0 0 0 0 0 0 0 0 0 0 0 0 0 0 0 0 0 0 0 0 0 0 0 -0
0 0 0 0 0 0 0 0 0 -0 -0 0 0 0 0 0 0 0 0 0 0 0 0 0 0 0 0 0 0 0 0 0 0 0 0 0 0 -0 -0 -0 -0 0 0 0 0 0 0
0 0 0 0 0 0 0 0 0 0 -0 -0 -0 0 0 0 0 0 0 0 0 0 0 0 0 0 0 0 0 0 0 0 0 0 -0 0 -0 -0 -0 0 0 0 0 0 0 0 0
0 0 0 0 0 0 0 0 0 0 -0 -0 0 0 0 0 0 0 0 0 0 0 0 0 0 0 0 0 0 0 0 0 0 0 0 0 -0 0 0 0 0 0 0 0 0 0 0
0 0 0 0 0 0 0 0 0 0 0 -0 -0 0 0 0 0 0 0 0 0 0 0 0 0 0 0 0 0 0 0 0 0 0 -0 0 0 0 0 -0 0 -0 -0 -0 0 0 0
0 0 0 0 0 0 0 0 0 0 -0 -0 0 0 0 0 0 0 0 0 0 0 0 0 0 0 0 0 0 0 0 0 -0 0 0 0 0 -0 -0 -0 0 -0 -0 0 0 0 0
0 0 0 0 0 0 0 0 0 0 0 0 0 0 0 0 0 0 0 0 0 0 0 0 0 0 0 0 0 0 0 0 0 0 0 -0 -0 0 0 0 0 0 0 0 0 0 0
0 0 0 0 0 0 0 0 0 0 0 0 0 0 0 0 0 0 0 0 0 0 0 0 0 0 -0 -0 -0 0 0 -0 -0 0 -0 -0 0 0 0 0 0 0 0 0 0 0 0
0 0 0 0 0 0 0 0 0 0 0 0 0 0 0 0 0 0 0 0 0 0 0 0 0 -0 -0 -0 0 0 -0 -0 -0 -0 -0 0 0 0 0 0 0 0 0 0 0 0 0
0 0 0 0 0 0 0 0 0 0 0 0 0 0 0 0 -0 0 0 0 0 0 0 0 0 0 0 -0 0 0 0 -0 -0 -0 -0 0 0 0 0 0 0 0 0 0 0 0 0
0 0 0 0 0 0 0 0 0 0 0 0 0 0 0 -0 -0 0 0 0 0 0 0 0 0 0 0 -0 -0 -0 -0 -0 0 -0 -0 0 0 0 0 0 0 0 0 0 0 0 0
0 0 0 0 0 0 0 0 0 0 0 0 0 0 0 0 0 0 0 0 0 0 0 0 0 -0 0 -0 0 0 0 0 0 0 0 0 0 0 0 0 0 0 0 0 0 0 0
0 0 0 0 0 0 0 0 0 0 0 0 0 0 0 0 0 0 0 0 0 0 0 0 0 0 0 -0 0 0 0 0 0 0 0 0 0 0 0 0 0 0 0 0 -0 0 0
0 0 0 0 0 0 0 0 0 0 0 0 0 0 0 0 0 0 0 0 0 0 0 0 0 0 0 0 0 0 0 0 0 0 0 0 0 0 0 0 0 0 -0 0 -0 0 -0
0 0 0 0 0 0 0 0 0 0 0 0 0 0 0 0 0 0 0 0 0 0 0 0 0 0 0 -0 0 0 0 0 0 0 0 0 0 0 0 0 0 0 -0 -0 0 0 0
0 0 0 0 0 0 0 0 0 0 0 0 0 0 0 0 0 0 0 0 0 0 0 0 -0 0 0 0 0 0 0 -0 0 0 0 0 0 0 0 0 0 0 0 -0 -0 0 0
0 0 0 0 0 0 0 0 0 0 0 0 0 0 0 0 0 0 0 0 0 0 0 -0 0 0 -0 -0 0 -0 -0 0 0 -0 0 0 0 0 0 0 0 0 0 0 0 0 0
0 0 0 0 0 0 0 0 0 0 0 0 0 0 0 0 0 0 0 0 0 0 0 0 0 0 -0 -0 -0 -0 -0 -0 -0 0 0 0 0 0 0 0 0 0 0 0 0 0 0
0 0 0 0 0 0 0 0 0 0 0 0 0 0 0 0 0 0 0 0 0 0 -0 -0 0 0 0 -0 -0 -0 -0 -0 -0 -0 -0 0 -0 0 0 0 0 0 0 0 0 0 0
0 0 0 0 0 0 0 0 0 0 0 0 0 0 0 0 0 -0 0 0 0 -0 -0 0 0 0 0 0 -0 -0 -0 -0 0 -0 0 0 -0 -0 -0 0 0 0 0 0 0 0 0
0 0 0 0 0 0 0 0 0 0 0 0 0 0 0 0 -0 -0 0 0 0 -0 -0 -0 0 0 0 0 -0 -0 -0 -0 0 -0 -0 -0 -0 -0 -0 -0 0 0 0 0 0 0 0
0 0 0 0 0 0 0 0 0 0 -0 0 0 0 0 -0 -0 -0 -0 0 -0 -0 -0 -0 -0 -0 0 0 0 0 -0 -0 -0 0 -0 -0 -0 0 -0 -0 -0 0 -0 -0 -0 -0 0
0 0 0 0 0 0 0 0 -0 0 0 0 0 0 0 -0 -0 -0 -0 -0 -0 -0 -0 -0 -0 0 -0 -0 -0 0 0 0 -0 -0 -0 -0 -0 -0 -0 -0 0 -0 -0 -0 -0 -0 -0
0 0 0 0 0 0 0 0 0 -0 0 0 0 0 0 0 0 -0 -0 -0 -0 -0 -0 -0 0 0 0 0 0 0 -0 -0 0 0 -0 0 -0 -0 -0 0 -0 -0 -0 -0 -0 -0 -0
Wind_Speed_500mb
14 11 8 6 6 4 4 9 13 12 13 24 23 18 23 27 28 28 25 24 25 24 23 27 29 33 27 19 19 13 22 26 29 25 27 23 21 17 16 9 16 27 29 29 31 36 40
16 17 11 6 4 14 20 20 17 16 15 22 22 26 22 18 19 21 22 25 28 30 31 32 32 32 21 26 19 21 22 24 20 25 26 19 7 5 17 20 22 19 32 42 41 36 29
13 16 13 10 10 15 14 17 23 26 25 28 25 15 15 20 26 28 31 31 32 34 35 35 30 28 24 36 37 30 28 24 20 22 23 21 17 13 7 15 15 25 34 36 41 41 32
15 15 11 10 15 8 10 16 15 15 25 19 8 13 21 32 33 33 35 34 35 38 40 36 30 25 19 27 26 12 17 24 20 22 26 22 20 15 27 19 21 21 26 24 5 13 14
18 18 15 13 18 9 12 17 21 25 31 19 17 20 33 33 33 35 35 34 35 38 35 27 17 9 14 13 13 24 29 27 25 23 22 15 15 15 11 16 21 17 23 36 34 31 10
20 20 22 17 13 12 16 27 24 10 7 13 19 31 37 39 38 34 30 24 25 23 14 13 9 5 10 13 39 38 35 25 19 10 9 17 15 9 12 18 22 21 25 31 32 1 27
23 22 24 24 20 20 22 24 23 16 13 24 32 36 40 28 17 14 17 17 12 7 20 8 21 19 30 31 34 17 25 19 11 10 11 17 11 27 42 43 47 38 40 49 39 16 23
22 25 24 25 25 23 20 19 18 15 25 31 31 18 17 9 10 14 15 10 9 10 15 18 10 18 19 22 19 23 16 9 8 15 15 11 27 47 42 41 43 45 48 55 52 36 27
23 26 26 24 24 22 23 20 18 17 27 18 13 14 8 5 9 10 11 11 12 15 7 9 14 11 14 25 16 18 10 6 11 17 23 21 40 26 33 37 39 43 50 48 48 23 34
30 26 27 25 23 21 20 17 16 17 14 12 9 10 4 6 6 8 8 12 15 13 3 11 6 5 13 37 12 29 12 9 8 14 15 24 34 27 29 45 41 45 48 51 46 25 22
40 33 25 27 22 20 19 17 13 12 12 10 13 7 1 3 5 7 9 15 14 5 2 22 12 17 39 5 21 4 11 11 24 24 7 25 32 33 33 50 36 37 23 24 33 29 36
51 39 35 31 21 19 17 17 12 7 6 7 10 8 4 1 4 7 13 16 9 1 5 10 13 22 25 9 8 16 9 13 27 22 29 43 43 30 32 31 24 7 4 9 18 19 23
52 43 43 38 26 19 17 13 12 7 7 8 10 8 6 1 4 9 14 11 3 7 6 14 12 21 24 13 16 10 19 16 9 16 24 34 7 8 11 10 7 9 12 6 9 11 16
47 55 49 50 31 21 19 16 13 10 11 12 13 9 4 1 6 11 16 5 7 3 8 8 13 22 9 18 6 19 14 12 7 16 23 20 20 3 4 12 8 20 14 9 12 10 9
59 54 52 53 41 26 21 19 19 16 17 17 13 9 2 3 7 11 8 7 1 7 6 15 15 8 10 8 8 16 10 9 10 15 15 14 13 9 24 17 7 11 19 10 11 11 13
58 68 60 56 50 36 28 25 25 23 24 21 15 8 4 3 7 9 7 4 4 7 5 4 9 4 8 14 18 20 11 5 14 17 23 10 19 4 11 9 6 11 3 8 10 8 9
58 64 69 59 54 41 35 33 32 31 29 24 17 5 2 1 5 6 5 4 9 13 9 1 4 6 10 9 12 12 13 19 12 24 35 15 10 17 15 13 24 14 10 11 7 11 9
72 74 69 68 58 43 40 40 39 37 32 26 14 3 1 2 6 6 4 9 7 5 3 4 7 9 7 9 9 8 9 11 31 31 22 7 9 15 8 7 29 15 20 9 8 5 9
64 64 65 77 67 48 48 49 47 42 37 29 13 7 2 6 3 4 2 3 5 4 3 3 5 6 8 6 9 12 9 13 23 22 26 17 11 13 13 7 32 14 39 10 15 7 30
64 71 67 85 70 57 56 56 49 45 41 31 13 4 4 4 9 11 8 4 3 8 5 6 6 6 10 5 9 11 13 11 36 14 36 7 8 13 16 16 22 35 52 51 22 18 26
63 71 59 82 73 56 62 64 57 51 47 36 11 4 9 4 4 10 5 9 5 5 6 6 4 10 4 7 6 7 9 20 21 21 23 10 7 5 10 27 38 46 47 49 47 29 20
68 68 73 82 74 67 71 70 61 60 53 38 16 13 12 8 14 13 1 10 10 5 8 5 7 10 12 9 8 10 14 7 7 26 18 19 6 5 3 15 19 43 48 41 41 26 26
63 72 66 74 61 76 75 73 72 68 62 27 25 21 14 10 8 6 7 10 11 8 10 11 8 6 11 18 19 31 32 35 27 15 13 16 13 11 5 16 16 23 31 32 24 31 17
61 80 62 61 71 83 78 76 75 68 64 28 44 32 12 6 8 6 13 9 11 10 4 6 9 6 5 33 41 12 14 20 18 19 18 12 8 6 6 9 14 7 17 10 14 35 32
63 68 64 74 83 85 79 77 73 67 62 41 36 28 12 7 8 6 13 8 9 6 5 9 10 13 32 21 6 7 4 1 3 8 6 6 5 5 6 6 1 4 11 12 14 23 29
61 68 70 76 84 88 85 77 74 68 65 54 27 31 10 25 15 12 13 13 5 4 4 8 10 15 11 6 5 6 6 2 11 20 3 2 8 1 4 9 11 5 4 11 8 18 38
65 69 68 83 87 92 88 80 78 74 64 61 36 36 12 12 21 26 9 8 12 7 3 7 10 5 11 4 5 4 3 2 7 10 11 10 8 10 5 5 7 6 28 1 6 6 23
72 73 70 89 96 96 94 88 78 74 65 59 50 40 23 10 27 21 14 9 11 8 4 2 3 2 3 6 2 2 2 2 3 3 3 4 5 4 2 5 7 22 10 7 2 6 9
78 81 72 80 96 98 90 84 82 75 65 59 52 46 30 11 17 22 18 15 11 9 8 5 3 2 3 7 2 4 2 2 1 6 3 1 2 3 3 4 6 14 11 9 8 10 12
Wind_Direction_500mb
344 350 321 258 272 264 250 270 291 286 291 301 321 320 312 310 312 318 321 316 315 316 318 322 319 314 318 309 290 299 254 273 282 284 290 302 295 290 272 274 281 257 269 269 269 267 269
331 333 309 228 211 282 288 263 257 279 296 306 298 307 319 339 337 330 326 325 321 316 315 312 314 310 307 287 295 303 294 285 288 279 281 294 286 304 283 270 264 289 284 280 270 267 266
324 323 314 236 266 256 280 303 302 264 293 295 302 311 326 321 317 312 312 315 315 311 306 303 305 305 289 272 290 304 307 305 298 278 267 274 268 259 299 285 293 284 290 289 268 252 250
325 331 325 253 263 287 299 297 321 285 287 300 316 306 311 311 311 312 311 311 311 307 303 303 295 282 270 282 302 313 308 309 297 286 275 265 268 243 241 265 275 276 278 283 312 230 235
321 328 328 292 273 272 293 281 278 276 286 282 279 299 304 304 307 308 310 309 307 305 307 312 300 250 272 298 305 313 301 302 292 282 274 248 219 214 188 227 255 222 265 249 271 236 233
324 326 327 320 281 273 278 284 288 313 349 327 299 291 297 301 301 305 315 314 318 309 333 354 61 283 287 310 305 302 300 296 280 258 244 211 208 211 208 209 240 243 240 252 251 129 220
333 320 320 318 313 273 275 286 287 277 307 298 289 293 298 308 323 338 341 351 355 341 333 289 300 278 298 308 307 313 304 292 244 216 226 204 212 228 231 223 239 272 268 269 271 279 252
306 324 314 309 313 296 310 315 294 312 310 297 303 313 313 360 356 346 360 43 48 326 306 318 320 305 313 322 311 308 293 241 196 246 245 232 229 241 253 254 248 249 257 259 269 254 236
288 296 309 304 307 299 305 305 302 306 297 320 329 333 355 12 350 354 22 42 2 353 286 308 325 320 316 322 303 294 270 246 234 258 254 255 261 272 254 255 251 237 239 256 254 279 237
267 278 293 299 301 303 306 304 304 306 309 304 278 304 337 349 6 359 19 1 350 347 349 351 341 319 326 315 268 302 275 255 252 285 265 254 265 263 257 253 245 255 238 250 262 256 250
253 262 276 290 293 298 299 295 296 304 306 256 234 248 293 352 11 5 350 342 347 22 315 339 312 324 327 286 314 272 310 245 267 266 253 263 284 274 256 261 270 268 287 235 240 251 264
258 258 267 281 282 289 288 292 281 280 274 220 212 210 191 48 9 357 341 345 357 265 304 345 320 347 353 324 292 302 299 247 271 279 254 258 268 277 265 275 257 294 128 202 237 246 247
259 260 263 266 273 268 269 255 253 222 213 193 194 178 162 134 4 345 345 359 3 61 17 331 334 337 335 297 313 322 319 301 305 311 318 314 258 281 249 259 172 163 160 210 224 218 254
247 252 258 260 263 250 249 237 209 193 188 184 175 160 158 32 1 354 350 65 49 96 277 318 318 326 320 342 316 320 306 326 358 307 308 338 319 205 167 233 252 192 192 195 239 224 287
241 243 248 254 252 230 232 216 188 184 178 178 170 157 161 41 7 353 30 55 227 196 288 325 324 350 323 334 332 338 329 307 327 353 359 307 270 252 289 278 214 169 218 204 275 244 272
254 240 244 242 245 222 212 198 186 182 177 177 173 163 74 21 1 1 69 125 202 224 286 340 0 4 316 320 332 341 319 327 319 359 348 282 288 244 306 299 271 258 114 193 212 265 234
248 245 247 236 239 219 202 190 193 182 179 177 175 184 329 22 354 48 79 166 229 238 234 294 297 293 273 303 311 312 296 303 358 323 325 277 247 307 324 30 346 319 269 247 233 236 313
244 245 237 242 231 215 195 191 192 182 179 181 172 133 284 150 31 46 115 175 203 254 99 254 264 262 255 303 297 290 289 295 330 329 329 273 306 306 307 346 354 293 292 235 271 76 48
242 237 243 232 227 220 196 195 192 182 181 176 172 141 126 174 155 107 185 254 233 229 192 253 255 252 296 275 304 272 288 283 327 338 340 326 347 328 345 333 2 355 21 46 46 23 25
240 235 241 234 223 204 193 190 196 179 180 175 161 125 91 104 104 129 146 181 212 231 246 267 285 303 293 269 224 295 302 291 320 330 351 339 26 26 15 350 353 21 26 34 50 59 64
236 238 242 238 228 224 194 189 191 188 182 174 170 144 144 159 141 123 135 161 178 168 221 218 258 232 302 296 296 255 301 311 317 358 2 36 351 358 63 41 34 32 24 28 44 35 53
232 239 235 235 234 216 198 189 189 183 180 176 166 151 118 98 127 133 58 200 186 195 196 206 232 282 265 232 237 300 340 328 342 327 355 359 307 332 237 341 28 33 20 27 33 25 48
228 232 236 237 230 214 192 186 190 184 179 169 185 162 145 161 152 160 196 177 195 158 214 235 264 303 265 259 270 277 275 269 275 308 321 349 336 355 15 354 339 30 359 359 23 25 18
230 220 230 233 226 198 184 187 192 189 184 179 181 163 154 159 189 198 173 186 163 196 237 260 224 228 266 308 305 278 251 258 257 258 251 309 333 339 329 325 32 45 351 336 9 31 12
219 224 228 227 215 190 184 187 193 193 187 188 186 177 170 122 163 157 183 198 148 207 241 248 251 259 306 323 320 349 336 48 294 267 234 225 292 38 54 34 122 72 20 6 357 29 18
223 222 221 235 200 188 184 188 195 193 192 188 186 185 176 130 213 161 171 197 169 189 281 252 287 302 334 37 32 47 17 319 321 341 143 303 17 128 27 60 21 34 349 332 299 38 6
217 219 217 221 199 185 185 185 195 197 190 193 193 190 174 116 155 158 180 183 165 143 223 301 332 328 3 29 61 31 41 313 337 342 338 339 10 48 56 75 289 329 323 287 63 7 355
214 212 216 215 197 186 185 186 193 197 188 193 199 194 191 140 158 175 177 162 155 165 159 266 305 328 22 64 12 92 306 101 269 289 338 329 357 44 170 68 2 0 314 68 56 13 68
213 214 207 213 193 185 185 186 195 194 185 194 197 192 192 162 152 171 179 177 174 173 164 114 139 161 143 99 116 135 165 215 3 352 204 23 244 325 222 101 315 349 36 69 99 100 89
Wind_Speed_850mb
14 11 8 6 6 4 4 9 13 12 13 24 23 18 23 27 28 28 25 24 25 24 23 27 29 33 27 19 19 13 22 26 29 25 27 23 21 17 16 9 16 27 29 29 31 36 40
16 17 11 6 4 14 20 20 17 16 15 22 22 26 22 18 19 21 22 25 28 30 31 32 32 32 21 26 19 21 22 24 20 25 26 19 7 5 17 20 22 19 32 42 41 36 29
13 16 13 10 10 15 14 17 23 26 25 28 25 15 15 20 26 28 31 31 32 34 35 35 30 28 24 36 37 30 28 24 20 22 23 21 17 13 7 15 15 25 34 36 41 41 32
15 15 11 10 15 8 10 16 15 15 25 19 8 13 21 32 33 33 35 34 35 38 40 36 30 25 19 27 26 12 17 24 20 22 26 22 20 15 27 19 21 21 26 24 5 13 14
18 18 15 13 18 9 12 17 21 25 31 19 17 20 33 33 33 35 35 34 35 38 35 27 17 9 14 13 13 24 29 27 25 23 22 15 15 15 11 16 21 17 23 36 34 31 10
20 20 22 17 13 12 16 27 24 10 7 13 19 31 37 39 38 34 30 24 25 23 14 13 9 5 10 13 39 38 35 25 19 10 9 17 15 9 12 18 22 21 25 31 32 1 27
23 22 24 24 20 20 22 24 23 16 13 24 32 36 40 28 17 14 17 17 12 7 20 8 21 19 30 31 34 17 25 19 11 10 11 17 11 27 42 43 47 38 40 49 39 16 23
22 25 24 25 25 23 20 19 18 15 25 31 31 18 17 9 10 14 15 10 9 10 15 18 10 18 19 22 19 23 16 9 8 15 15 11 27 47 42 41 43 45 48 55 52 36 27
23 26 26 24 24 22 23 20 18 17 27 18 13 14 8 5 9 10 11 11 12 15 7 9 14 11 14 25 16 18 10 6 11 17 23 21 40 26 33 37 39 43 50 48 48 23 34
30 26 27 25 23 21 20 17 16 17 14 12 9 10 4 6 6 8 8 12 15 13 3 11 6 5 13 37 12 29 12 9 8 14 15 24 34 27 29 45 41 45 48 51 46 25 22
40 33 25 27 22 20 19 17 13 12 12 10 13 7 1 3 5 7 9 15 14 5 2 22 12 17 39 5 21 4 11 11 24 24 7 25 32 33 33 50 36 37 23 24 33 29 36
51 39 35 31 21 19 17 17 12 7 6 7 10 8 4 1 4 7 13 16 9 1 5 10 13 22 25 9 8 16 9 13 27 22 29 43 43 30 32 31 24 7 4 9 18 19 23
52 43 43 38 26 19 17 13 12 7 7 8 10 8 6 1 4 9 14 11 3 7 6 14 12 21 24 13 16 10 19 16 9 16 24 34 7 8 11 10 7 9 12 6 9 11 16
47 55 49 50 31 21 19 16 13 10 11 12 13 9 4 1 6 11 16 5 7 3 8 8 13 22 9 18 6 19 14 12 7 16 23 20 20 3 4 12 8 20 14 9 12 10 9
59 54 52 53 41 26 21 19 19 16 17 17 13 9 2 3 7 11 8 7 1 7 6 15 15 8 10 8 8 16 10 9 10 15 15 14 13 9 24 17 7 11 19 10 11 11 13
58 68 60 56 50 36 28 25 25 23 24 21 15 8 4 3 7 9 7 4 4 7 5 4 9 4 8 14 18 20 11 5 14 17 23 10 19 4 11 9 6 11 3 8 10 8 9
58 64 69 59 54 41 35 33 32 31 29 24 17 5 2 1 5 6 5 4 9 13 9 1 4 6 10 9 12 12 13 19 12 24 35 15 10 17 15 13 24 14 10 11 7 11 9
72 74 69 68 58 43 40 40 39 37 32 26 14 3 1 2 6 6 4 9 7 5 3 4 7 9 7 9 9 8 9 11 31 31 22 7 9 15 8 7 29 15 20 9 8 5 9
64 64 65 77 67 48 48 49 47 42 37 29 13 7 2 6 3 4 2 3 5 4 3 3 5 6 8 6 9 12 9 13 23 22 26 17 11 13 13 7 32 14 39 10 15 7 30
64 71 67 85 70 57 56 56 49 45 41 31 13 4 4 4 9 11 8 4 3 8 5 6 6 6 10 5 9 11 13 11 36 14 36 7 8 13 16 16 22 35 52 51 22 18 26
63 71 59 82 73 56 62 64 57 51 47 36 11 4 9 4 4 10 5 9 5 5 6 6 4 10 4 7 6 7 9 20 21 21 23 10 7 5 10 27 38 46 47 49 47 29 20
68 68 73 82 74 67 71 70 61 60 53 38 16 13 12 8 14 13 1 10 10 5 8 5 7 10 12 9 8 10 14 7 7 26 18 19 6 5 3 15 19 43 48 41 41 26 26
63 72 66 74 61 76 75 73 72 68 62 27 25 21 14 10 8 6 7 10 11 8 10 11 8 6 11 18 19 31 32 35 27 15 13 16 13 11 5 16 16 23 31 32 24 31 17
61 80 62 61 71 83 78 76 75 68 64 28 44 32 12 6 8 6 13 9 11 10 4 6 9 6 5 33 41 12 14 20 18 19 18 12 8 6 6 9 14 7 17 10 14 35 32
63 68 64 74 83 85 79 77 73 67 62 41 36 28 12 7 8 6 13 8 9 6 5 9 10 13 32 21 6 7 4 1 3 8 6 6 5 5 6 6 1 4 11 12 14 23 29
61 68 70 76 84 88 85 77 74 68 65 54 27 31 10 25 15 12 13 13 5 4 4 8 10 15 11 6 5 6 6 2 11 20 3 2 8 1 4 9 11 5 4 11 8 18 38
65 69 68 83 87 92 88 80 78 74 64 61 36 36 12 12 21 26 9 8 12 7 3 7 10 5 11 4 5 4 3 2 7 10 11 10 8 10 5 5 7 6 28 1 6 6 23
72 73 70 89 96 96 94 88 78 74 65 59 50 40 23 10 27 21 14 9 11 8 4 2 3 2 3 6 2 2 2 2 3 3 3 4 5 4 2 5 7 22 10 7 2 6 9
78 81 72 80 96 98 90 84 82 75 65 59 52 46 30 11 17 22 18 15 11 9 8 5 3 2 3 7 2 4 2 2 1 6 3 1 2 3 3 4 6 14 11 9 8 10 12
Wind_Direction_850mb
344 350 321 258 272 264 250 270 291 286 291 301 321 320 312 310 312 318 321 316 315 316 318 322 319 314 318 309 290 299 254 273 282 284 290 302 295 290 272 274 281 257 269 269 269 267 269
331 333 309 228 211 282 288 263 257 279 296 306 298 307 319 339 337 330 326 325 321 316 315 312 314 310 307 287 295 303 294 285 288 279 281 294 286 304 283 270 264 289 284 280 270 267 266
324 323 314 236 266 256 280 303 302 264 293 295 302 311 326 321 317 312 312 315 315 311 306 303 305 305 289 272 290 304 307 305 298 278 267 274 268 259 299 285 293 284 290 289 268 252 250
325 331 325 253 263 287 299 297 321 285 287 300 316 306 311 311 311 312 311 311 311 307 303 303 295 282 270 282 302 313 308 309 297 286 275 265 268 243 241 265 275 276 278 283 312 230 235
321 328 328 292 273 272 293 281 278 276 286 282 279 299 304 304 307 308 310 309 307 305 307 312 300 250 272 298 305 313 301 302 292 282 274 248 219 214 188 227 255 222 265 249 271 236 233
324 326 327 320 281 273 278 284 288 313 349 327 299 291 297 301 301 305 315 314 318 309 333 354 61 283 287 310 305 302 300 296 280 258 244 211 208 211 208 209 240 243 240 252 251 129 220
333 320 320 318 313 273 275 286 287 277 307 298 289 293 298 308 323 338 341 351 355 341 333 289 300 278 298 308 307 313 304 292 244 216 226 204 212 228 231 223 239 272 268 269 271 279 252
306 324 314 309 313 296 310 315 294 312 310 297 303 313 313 360 356 346 360 43 48 326 306 318 320 305 313 322 311 308 293 241 196 246 245 232 229 241 253 254 248 249 257 259 269 254 236
288 296 309 304 307 299 305 305 302 306 297 320 329 333 355 12 350 354 22 42 2 353 286 308 325 320 316 322 303 294 270 246 234 258 254 255 261 272 254 255 251 237 239 256 254 279 237
267 278 293 299 301 303 306 304 304 306 309 304 278 304 337 349 6 359 19 1 350 347 349 351 341 319 326 315 268 302 275 255 252 285 265 254 265 263 257 253 245 255 238 250 262 256 250
253 262 276 290 293 298 299 295 296 304 306 256 234 248 293 352 11 5 350 342 347 22 315 339 312 324 327 286 314 272 310 245 267 266 253 263 284 274 256 261 270 268 287 235 240 251 264
258 258 267 281 282 289 288 292 281 280 274 220 212 210 191 48 9 357 341 345 357 265 304 345 320 347 353 324 292 302 299 247 271 279 254 258 268 277 265 275 257 294 128 202 237 246 247
259 260 263 266 273 268 269 255 253 222 213 193 194 178 162 134 4 345 345 359 3 61 17 331 334 337 335 297 313 322 319 301 305 311 318 314 258 281 249 259 172 163 160 210 224 218 254
247 252 258 260 263 250 249 237 209 193 188 184 175 160 158 32 1 354 350 65 49 96 277 318 318 326 320 342 316 320 306 326 358 307 308 338 319 205 167 233 252 192 192 195 239 224 287
241 243 248 254 252 230 232 216 188 184 178 178 170 157 161 41 7 353 30 55 227 196 288 325 324 350 323 334 332 338 329 307 327 353 359 307 270 252 289 278 214 169 218 204 275 244 272
254 240 244 242 245 222 212 198 186 182 177 177 173 163 74 21 1 1 69 125 202 224 286 340 0 4 316 320 332 341 319 327 319 359 348 282 288 244 306 299 271 258 114 193 212 265 234
248 245 247 236 239 219 202 190 193 182 179 177 175 184 329 22 354 48 79 166 229 238 234 294 297 293 273 303 311 312 296 303 358 323 325 277 247 307 324 30 346 319 269 247 233 236 313
244 245 237 242 231 215 195 191 192 182 179 181 172 133 284 150 31 46 115 175 203 254 99 254 264 262 255 303 297 290 289 295 330 329 329 273 306 306 307 346 354 293 292 235 271 76 48
242 237 243 232 227 220 196 195 192 182 181 176 172 141 126 174 155 107 185 254 233 229 192 253 255 252 296 275 304 272 288 283 327 338 340 326 347 328 345 333 2 355 21 46 46 23 25
240 235 241 234 223 204 193 190 196 179 180 175 161 125 91 104 104 129 146 181 212 231 246 267 285 303 293 269 224 295 302 291 320 330 351 339 26 26 15 350 353 21 26 34 50 59 64
236 238 242 238 228 224 194 189 191 188 182 174 170 144 144 159 141 123 135 161 178 168 221 218 258 232 302 296 296 255 301 311 317 358 2 36 351 358 63 41 34 32 24 28 44 35 53
232 239 235 235 234 216 198 189 189 183 180 176 166 151 118 98 127 133 58 200 186 195 196 206 232 282 265 232 237 300 340 328 342 327 355 359 307 332 237 341 28 33 20 27 33 25 48
228 232 236 237 230 214 192 186 190 184 179 169 185 162 145 161 152 160 196 177 195 158 214 235 264 303 265 259 270 277 275 269 275 308 321 349 336 355 15 354 339 30 359 359 23 25 18
230 220 230 233 226 198 184 187 192 189 184 179 181 163 154 159 189 198 173 186 163 196 237 260 224 228 266 308 305 278 251 258 257 258 251 309 333 339 329 325 32 45 351 336 9 31 12
219 224 228 227 215 190 184 187 193 193 187 188 186 177 170 122 163 157 183 198 148 207 241 248 251 259 306 323 320 349 336 48 294 267 234 225 292 38 54 34 122 72 20 6 357 29 18
223 222 221 235 200 188 184 188 195 193 192 188 186 185 176 130 213 161 171 197 169 189 281 252 287 302 334 37 32 47 17 319 321 341 143 303 17 128 27 60 21 34 349 332 299 38 6
217 219 217 221 199 185 185 185 195 197 190 193 193 190 174 116 155 158 180 183 165 143 223 301 332 328 3 29 61 31 41 313 337 342 338 339 10 48 56 75 289 329 323 287 63 7 355
214 212 216 215 197 186 185 186 193 197 188 193 199 194 191 140 158 175 177 162 155 165 159 266 305 328 22 64 12 92 306 101 269 289 338 329 357 44 170 68 2 0 314 68 56 13 68
213 214 207 213 193 185 185 186 195 194 185 194 197 192 192 162 152 171 179 177 174 173 164 114 139 161 143 99 116 135 165 215 3 352 204 23 244 325 222 101 315 349 36 69 99 100 89